User: anonymous   Login
Location: Saint-Denis
(20.8800°S, 55.4481°E)
Time: 05:33:17
(UTC+04:00)
Language:

SPROUT - Orbit

View from above orbital plane
View from above orbital plane
View from above satellite
View from above satellite

Ground track
Ground track

The orbit data is extracted from the following two-line orbital elements,

1 39770U 14029E   24111.41080880  .00142890  00000-0  46559-2 0  9995
2 39770  98.0086 258.6416 0004564 302.0512  58.0284 15.31219253538761
Epoch (UTC): 20 April 2024 09:51:33
Eccentricity: 0.0004564
inclination: 98.0086°
perigee height: 469 km
apogee height: 475 km
right ascension of ascending node: 258.6416°
argument of perigee: 302.0512°
revolutions per day: 15.31219253
mean anomaly at epoch: 58.0284°
orbit number at epoch: 53876

The dashed part of the orbit path shows where the satellite is in the earth's shadow,  

DLR